Weather reports worldwide

Advertisment
Bezier-Vias, France (7638): temperature & dewpoint: 18.06.2018 11:00:00 - 24.06.2018 11:00:00 (CEST)Bezier-Vias, France (7638): wind speed & gusts: 18.06.2018 11:00:00 - 24.06.2018 11:00:00 (CEST)Bezier-Vias, France (7638): wind direction: 18.06.2018 11:00:00 - 24.06.2018 11:00:00 (CEST)Bezier-Vias, France (7638): reduced air pressure: 18.06.2018 11:00:00 - 24.06.2018 11:00:00 (CEST)Bezier-Vias, France (7638): visibility: 18.06.2018 11:00:00 - 24.06.2018 11:00:00 (CEST)Bezier-Vias, France (7638): precipitation: 18.06.2018 11:00:00 - 24.06.2018 11:00:00 (CEST)
Date & Time tt [°C] td [°C] ff [km/h] ff [kn] fx [km/h] fx [kn] dd ppp [hPa] vv [km] rr [mm]
24.06.2018 11:00:00 25,5 12,7 8 4 16 9 ESE 1017,7 32 0,0
24.06.2018 10:00:00 22,7 14,0 3 2 9 5 WNW 1018,0 27 0,0
24.06.2018 09:00:00 21,1 13,8 5 3 10 6 N 1018,0 27 0,0
24.06.2018 08:00:00 19,6 14,2 5 3 16 8 N 1017,8 26 0,0
24.06.2018 07:00:00 17,8 14,7 9 5 16 8 NNE 1017,6 31 0,0
24.06.2018 06:00:00 16,6 13,9 2 1 14 7 WSW 1017,4 19 0,0
24.06.2018 05:00:00 16,7 14,2 6 3 12 6 NNW 1017,3 19 0,0
24.06.2018 04:00:00 17,3 14,0 0 0 6 3 N 1017,5 21 0,0
24.06.2018 03:00:00 17,7 14,2 2 1 7 4 NE 1018,1 22 0,0
24.06.2018 02:00:00 18,4 14,1 2 1 6 3 NE 1018,3 25 0,0
24.06.2018 01:00:00 18,8 14,1 2 1 6 3 NE 1018,4 28 0,0
24.06.2018 00:00:00 19,0 13,8 5 3 9 5 NE 1018,5 28 0,0
23.06.2018 23:00:00 19,7 13,6 2 1 10 6 NNE 1018,6 31 0,0
23.06.2018 22:00:00 21,5 14,2 8 4 16 9 SW 1018,1 29 0,0
23.06.2018 21:00:00 23,9 13,7 10 5 18 10 S 1017,4 31 0,0
23.06.2018 20:00:00 26,0 13,8 8 5 21 11 SSE 1017,2 32 0,0
23.06.2018 19:00:00 27,6 10,3 11 6 26 14 SE 1017,1 23 0,0
23.06.2018 18:00:00 28,0 8,8 14 8 23 13 SE 1017,6 24 0,0
23.06.2018 17:00:00 28,4 7,6 13 7 23 13 SSE 1018,0 27 0,0
23.06.2018 16:00:00 27,5 6,3 16 8 25 13 S 1018,3 29 0,0
23.06.2018 15:00:00 26,8 5,1 17 9 27 14 S 1018,5 35 0,0
23.06.2018 14:00:00 26,5 4,9 17 9 31 17 SE 1019,0 42 0,0
23.06.2018 13:00:00 27,7 2,0 10 5 25 13 NNE 1019,2 20 0,0
23.06.2018 12:00:00 26,1 3,9 9 5 19 10 NNE 1019,6 45 0,0
23.06.2018 11:00:00 24,4 3,1 6 4 22 12 NE 1019,6 54 0,0
23.06.2018 10:00:00 22,8 4,8 11 6 23 12 NNW 1019,6 28 0,0
23.06.2018 09:00:00 20,8 6,7 8 4 19 10 N 1019,6 26 0,0
23.06.2018 08:00:00 18,1 6,6 11 6 16 9 NNW 1019,5 24 0,0
23.06.2018 07:00:00 13,5 7,3 5 3 10 5 WNW 1019,0 51 0,0
23.06.2018 06:00:00 12,0 6,1 4 2 9 5 NW 1018,9 48 0,0
23.06.2018 05:00:00 12,9 6,0 3 2 9 5 NNW 1018,7 49 0,0
23.06.2018 04:00:00 15,6 5,5 3 1 8 5 W 1018,9 47 0,0
23.06.2018 03:00:00 16,7 5,0 3 2 24 13 W 1018,7 55 0,0
23.06.2018 02:00:00 18,6 4,4 14 7 19 11 NNW 1018,7 55 0,0
23.06.2018 01:00:00 19,0 4,0 10 5 22 12 N 1018,7 50 0,0
23.06.2018 00:00:00 19,8 3,5 10 5 27 14 NNW 1018,5 52 0,0
22.06.2018 23:00:00 21,8 4,4 14 8 25 14 NNW 1018,0 45 0,0
22.06.2018 22:00:00 23,9 4,3 16 9 36 20 NNW 1017,2 50 0,0
22.06.2018 21:00:00 26,6 3,8 23 12 42 23 NNW 1016,4 23 0,0
22.06.2018 20:00:00 28,8 3,6 26 14 45 24 N 1016,0 12 0,0
22.06.2018 19:00:00 30,0 6,0 30 16 49 26 NW 1015,7 10 0,0
22.06.2018 18:00:00 30,9 5,3 32 17 51 28 NW 1015,5 11 0,0
22.06.2018 17:00:00 31,2 6,3 34 18 64 34 NW 1015,4 12 0,0
22.06.2018 16:00:00 31,2 10,0 31 17 53 28 NW 1015,7 13 0,0
22.06.2018 15:00:00 30,9 11,3 35 19 53 28 NW 1015,7 14 0,0
22.06.2018 14:00:00 29,5 11,1 29 15 46 25 NW 1016,5 13 0,0
22.06.2018 13:00:00 29,3 11,8 29 16 46 25 NNW 1017,0 13 0,0
22.06.2018 12:00:00 28,5 14,0 25 14 42 23 NNW 1017,2 13 0,0
22.06.2018 11:00:00 26,8 16,1 21 12 36 20 NNW 1017,1 13 0,0
22.06.2018 10:00:00 26,3 16,8 15 8 27 15 NNW 1017,0 13 0,0
22.06.2018 09:00:00 24,8 17,0 13 7 25 13 NW 1017,2 14 0,0
22.06.2018 08:00:00 23,1 18,4 17 9 24 13 W 1017,3 15 0,0
22.06.2018 07:00:00 21,1 18,7 13 7 22 12 W 1017,1 18 0,0
22.06.2018 06:00:00 20,2 17,8 8 5 14 8 W 1016,5 13 0,0
22.06.2018 05:00:00 21,9 18,9 11 6 20 11 W 1016,4 16 0,0
22.06.2018 04:00:00 22,9 18,7 8 4 17 9 W 1016,5 25 0,0
22.06.2018 03:00:00 24,6 18,5 10 5 24 13 W 1016,2 28 0,0
22.06.2018 02:00:00 25,1 18,5 17 9 26 14 W 1016,1 28 0,0
22.06.2018 01:00:00 25,6 18,3 17 9 28 15 W 1015,9 29 0,0
22.06.2018 00:00:00 24,6 17,6 9 5 16 9 WNW 1015,8 29 0,0
21.06.2018 23:00:00 26,6 17,4 15 8 23 13 WNW 1015,7 30 0,0
21.06.2018 22:00:00 27,6 17,2 15 8 30 16 WNW 1015,1 30 0,0
21.06.2018 21:00:00 29,2 17,1 19 10 40 21 NW 1014,8 28 0,0
21.06.2018 20:00:00 32,1 16,0 24 13 38 20 NW 1014,3 26 0,0
21.06.2018 19:00:00 28,5 18,6 10 6 21 11 SSE 1014,2 50 0,0
21.06.2018 18:00:00 29,1 16,6 13 7 29 15 SSW 1014,6 43 0,0
21.06.2018 17:00:00 28,0 17,5 18 10 29 15 SSW 1015,0 20 0,0
21.06.2018 16:00:00 28,9 16,8 14 8 29 16 SW 1015,9 20 0,0
21.06.2018 15:00:00 30,8 17,5 17 9 27 15 S 1015,9 22 0,0
21.06.2018 14:00:00 30,0 16,8 16 8 26 14 S 1016,4 24 0,0
21.06.2018 13:00:00 29,9 16,7 14 8 24 13 S 1016,9 27 0,0
21.06.2018 12:00:00 29,8 14,4 14 7 26 14 WSW 1017,3 30 0,0
21.06.2018 11:00:00 27,9 15,9 9 5 17 9 W 1017,6 31 0,0
21.06.2018 10:00:00 26,0 15,4 5 3 13 7 WSW 1018,0 53 0,0
21.06.2018 09:00:00 23,5 15,0 6 3 14 7 NNW 1018,2 19 0,0
21.06.2018 08:00:00 20,1 16,5 8 4 10 6 NW 1017,8 21 0,0
21.06.2018 07:00:00 17,5 15,5 5 3 10 5 NNW 1017,8 22 0,0
21.06.2018 06:00:00 17,2 15,2 3 2 12 7 NNW 1017,7 21 0,0
21.06.2018 05:00:00 17,7 16,0 4 2 10 5 N 1017,6 20 0,0
21.06.2018 04:00:00 17,9 15,9 6 4 9 5 NNW 1017,9 21 0,0
21.06.2018 03:00:00 18,6 16,4 3 2 11 6 NE 1018,4 19 0,0
21.06.2018 02:00:00 18,9 16,7 5 3 8 5 NW 1018,6 19 0,0
21.06.2018 01:00:00 19,6 17,2 3 2 11 6 N 1018,8 20 0,0
21.06.2018 00:00:00 20,2 17,6 4 2 6 4 N 1019,0 21 0,0
20.06.2018 23:00:00 20,8 17,6 3 1 5 3 NW 1019,2 21 0,0
20.06.2018 22:00:00 21,8 18,0 3 2 9 5 WSW 1018,8 20 0,0
20.06.2018 21:00:00 23,2 17,9 5 3 19 10 S 1018,4 36 0,0
20.06.2018 20:00:00 25,6 17,3 9 5 19 10 S 1018,1 38 0,0
20.06.2018 19:00:00 27,7 16,3 10 6 18 10 S 1017,8 29 0,0
20.06.2018 18:00:00 28,1 16,4 11 6 21 11 SE 1018,1 25 0,0
20.06.2018 17:00:00 28,5 16,1 10 5 22 12 SSE 1018,5 26 0,0
20.06.2018 16:00:00 28,3 16,6 12 7 26 14 S 1018,6 27 0,0
20.06.2018 15:00:00 28,5 16,1 16 9 26 14 S 1018,7 31 0,0
20.06.2018 14:00:00 28,2 16,1 15 8 23 13 S 1019,0 33 0,0
20.06.2018 13:00:00 27,7 14,7 17 9 26 14 SSE 1019,4 37 0,0
20.06.2018 12:00:00 28,3 14,9 16 9 24 13 S 1019,4 20 0,0
20.06.2018 11:00:00 28,2 14,4 13 7 21 12 SSE 1019,3 54 0,0
20.06.2018 10:00:00 27,9 15,5 6 3 16 9 E 1019,3 30 0,0
20.06.2018 09:00:00 25,6 16,4 6 3 11 6 NE 1019,3 19 0,0
20.06.2018 08:00:00 22,4 16,7 5 3 11 6 N 1019,2 23 0,0
20.06.2018 07:00:00 19,3 16,5 4 2 9 5 NNW 1018,9 25 0,0
20.06.2018 06:00:00 17,8 15,4 4 2 7 4 WNW 1018,8 24 0,0
20.06.2018 05:00:00 18,6 16,2 4 2 8 4 N 1018,7 33 0,0
20.06.2018 04:00:00 19,2 16,4 3 2 6 3 SW 1018,9 32 0,0
20.06.2018 03:00:00 19,1 15,8 3 2 4 2 NNW 1019,1 31 0,0
20.06.2018 02:00:00 20,4 16,0 3 1 7 4 NNW 1019,3 32 0,0
20.06.2018 01:00:00 21,6 16,1 10 5 14 8 NE 1019,4 35 0,0
20.06.2018 00:00:00 23,3 16,1 10 6 16 9 W 1019,2 37 0,0
19.06.2018 23:00:00 23,6 15,9 7 4 11 6 W 1019,1 29 0,0
19.06.2018 22:00:00 25,1 15,7 6 3 11 6 WSW 1018,6 25 0,0
19.06.2018 21:00:00 27,0 15,4 8 4 14 8 WSW 1018,4 32 0,0
19.06.2018 20:00:00 29,1 14,1 9 5 16 8 S 1018,5 37 0,0
19.06.2018 19:00:00 30,3 13,6 10 6 16 9 SSW 1018,6 34 0,0
19.06.2018 18:00:00 30,5 12,9 9 5 19 11 S 1019,0 30 0,0
19.06.2018 17:00:00 30,1 12,5 13 7 22 12 S 1019,3 29 0,0
19.06.2018 16:00:00 30,0 12,9 14 8 25 13 S 1019,5 34 0,0
19.06.2018 15:00:00 29,5 12,0 15 8 24 13 SSE 1019,8 39 0,0
19.06.2018 14:00:00 30,2 12,1 11 6 26 14 NNE 1020,1 20 0,0
19.06.2018 13:00:00 28,5 12,4 12 6 32 18 N 1020,5 22 0,0
19.06.2018 12:00:00 27,8 11,8 13 7 26 14 NNE 1020,8 28 0,0
19.06.2018 11:00:00 26,8 12,8 19 10 30 16 NW 1021,0 30 0,0
19.06.2018 10:00:00 24,8 13,4 16 9 29 15 WNW 1021,5 28 0,0
19.06.2018 09:00:00 23,0 13,7 18 10 26 14 W 1021,7 31 0,0
19.06.2018 08:00:00 21,2 13,9 15 8 21 11 W 1021,8 41 0,0
19.06.2018 07:00:00 18,4 14,1 10 6 20 11 WNW 1021,6 51 0,0
19.06.2018 06:00:00 16,3 12,6 9 5 12 7 WNW 1021,5 35 0,0
19.06.2018 05:00:00 17,5 13,0 11 6 17 9 WNW 1021,3 48 0,0
19.06.2018 04:00:00 17,0 13,3 11 6 19 10 W 1021,4 45 0,0
19.06.2018 03:00:00 17,3 13,4 12 7 21 11 W 1021,4 38 0,0
19.06.2018 02:00:00 18,6 13,5 10 5 24 13 W 1021,6 42 0,0
19.06.2018 01:00:00 18,9 13,5 13 7 24 13 WNW 1021,7 41 0,0
19.06.2018 00:00:00 19,3 13,2 15 8 25 13 WNW 1021,7 42 0,0
18.06.2018 23:00:00 21,3 13,2 16 9 31 17 WNW 1021,6 47 0,0
18.06.2018 22:00:00 22,6 12,8 21 11 37 20 WNW 1020,9 45 0,0
18.06.2018 21:00:00 24,2 12,5 26 14 44 24 WNW 1020,4 16 0,0
18.06.2018 20:00:00 26,0 12,4 31 17 51 27 WNW 1020,0 15 0,0
18.06.2018 19:00:00 26,8 12,8 34 19 55 30 NW 1019,6 12 0,0
18.06.2018 18:00:00 27,7 12,9 36 19 58 31 NNW 1019,8 11 0,0
18.06.2018 17:00:00 27,1 12,3 33 18 64 35 WNW 1020,0 11 0,0
18.06.2018 16:00:00 26,8 12,1 37 20 59 32 NW 1020,0 11 0,0
18.06.2018 15:00:00 26,8 11,7 35 19 60 32 NNW 1020,3 13 0,0
18.06.2018 14:00:00 27,2 12,4 31 17 52 28 NW 1020,5 15 0,0
18.06.2018 13:00:00 26,1 12,2 29 15 52 28 NW 1021,1 16 0,0
18.06.2018 12:00:00 24,9 11,5 26 14 51 27 NW 1021,0 15 0,0
18.06.2018 11:00:00 24,0 9,9 26 14 47 26 NNW 1021,1 12 0,0

tt = temperature
td = dewpoint
ff = wind speed
fx = gusts
dd = wind direction
ppp = reduced air pressure
vv = visibility
rr = precipitation

Next stations